Reno, NV

11:16 PM PDT on May 25, 2018 (GMT -0700)
Reno-Tahoe International

Weather History for KRNO - January, 2013

Change the Weather History Date:

Thursday, January 24, 2013

  Actual Average Record
Temperature  
Mean Temperature 45 °F 36 °F  
Max Temperature 52 °F 47 °F 67 °F (1948)
Min Temperature 37 °F 26 °F -6 °F (1962)
Degree Days  
Heating Degree Days 20 29  
Month to date heating degree days 892 714  
Since 1 July heating degree days 2568 2738  
Cooling Degree Days 0 0  
Month to date cooling degree days 0 0  
Year to date cooling degree days 0 0  
Moisture  
Dew Point 35 °F    
Average Humidity 67    
Maximum Humidity 85    
Minimum Humidity 49    
Precipitation  
Precipitation 0.04 in 0.03 in 0.94 in (1983)
Month to date precipitation 0.09 0.83  
Year to date precipitation 0.09 0.83  
Snow  
Snow 0.00 in 0.10 in 11.20 in (1967)
Month to date snowfall 0.6 4.8  
Since 1 July snowfall 8.6 13.2  
Snow Depth 0.00 in    
Sea Level Pressure  
Sea Level Pressure 30.19 in    
Wind  
Wind Speed 2 mph (SE)    
Max Wind Speed 8 mph    
Max Gust Speed 9 mph    
Visibility 10 miles    
Events Rain    
T = Trace of Precipitation, MM = Missing Value Source: NWS Daily Summary

Daily Weather History Graph

Daily Weather History Graph

Search for Another Location

Airport or City:

Astronomy

Jan. 24, 2013 Rise Set
Actual Time 7:12 AM PST 5:10 PM PST
Civil Twilight 6:43 AM PST 5:39 PM PST
Nautical Twilight 6:11 AM PST 6:11 PM PST
Astronomical Twilight 5:39 AM PST 6:43 PM PST
Moon 3:17 PM PST (1/24) 5:13 AM PST (1/24)
Length of Visible Light 10h 55m
Length of Day
9h 57m
Waxing Gibbous, 95% of the Moon is Illuminated
Jan 24
Waxing Gibbous
Jan 26
Full
Feb 3
Last Quarter
Feb 9
New
Feb 17
First Quarter

Hourly Weather History & Observations

Time (PST) Temp. Windchill Dew Point Humidity Pressure Visibility Wind Dir Wind Speed Gust Speed Precip Events Conditions
12:55 AM 43.0 °F 41.3 °F 28.0 °F 56% 30.12 in 10.0 mi NW 3.5 mph - N/A   Overcast
1:55 AM 39.9 °F - 28.9 °F 65% 30.13 in 10.0 mi Calm Calm - N/A   Overcast
2:55 AM 39.9 °F - 33.1 °F 77% 30.12 in 10.0 mi Calm Calm - 0.00 in Rain Light Rain
3:55 AM 39.9 °F - 33.1 °F 77% 30.12 in 10.0 mi Calm Calm - 0.00 in Rain Light Rain
4:55 AM 37.9 °F - 34.0 °F 86% 30.13 in 10.0 mi Calm Calm - 0.00 in   Overcast
5:02 AM 37.4 °F - 33.8 °F 87% 30.17 in 10.0 mi Calm Calm - N/A   Overcast
5:55 AM 37.9 °F - 34.0 °F 86% 30.16 in 10.0 mi Calm Calm - N/A   Overcast
6:02 AM 37.4 °F - 33.8 °F 87% 30.17 in 10.0 mi Calm Calm - N/A   Overcast
6:55 AM 37.0 °F - 34.0 °F 89% 30.16 in 10.0 mi Calm Calm - N/A   Overcast
7:55 AM 37.9 °F 35.5 °F 34.0 °F 86% 30.17 in 10.0 mi ENE 3.5 mph - N/A   Mostly Cloudy
8:55 AM 39.9 °F - 34.0 °F 79% 30.18 in 10.0 mi Calm Calm - N/A   Mostly Cloudy
9:55 AM 42.1 °F - 35.1 °F 76% 30.21 in 10.0 mi Calm Calm - N/A   Mostly Cloudy
10:55 AM 44.1 °F - 35.1 °F 71% 30.22 in 10.0 mi Calm Calm - N/A   Mostly Cloudy
11:55 AM 48.0 °F - 36.0 °F 63% 30.19 in 10.0 mi East 3.5 mph - N/A   Scattered Clouds
12:55 PM 51.1 °F - 35.1 °F 54% 30.17 in 10.0 mi Calm Calm - N/A   Mostly Cloudy
1:55 PM 50.0 °F - 35.1 °F 57% 30.16 in 10.0 mi SE 4.6 mph - N/A   Mostly Cloudy
2:55 PM 48.9 °F - 36.0 °F 61% 30.17 in 10.0 mi South 3.5 mph - N/A   Mostly Cloudy
3:55 PM 46.9 °F - 37.9 °F 71% 30.18 in 10.0 mi SSE 6.9 mph - 0.00 in Rain Light Rain
4:55 PM 44.1 °F 40.8 °F 37.0 °F 76% 30.21 in 10.0 mi SSE 5.8 mph - 0.00 in Rain Light Rain
5:55 PM 42.1 °F 40.2 °F 37.9 °F 85% 30.22 in 10.0 mi SSE 3.5 mph - 0.01 in Rain Light Rain
6:55 PM 41.0 °F 38.0 °F 37.9 °F 89% 30.24 in 10.0 mi SSE 4.6 mph - 0.02 in   Overcast
7:55 PM 41.0 °F 38.0 °F 37.9 °F 89% 30.24 in 10.0 mi SSE 4.6 mph - 0.00 in Rain Light Rain
8:55 PM 39.9 °F - 37.0 °F 89% 30.24 in 10.0 mi Calm Calm - 0.00 in   Mostly Cloudy
9:55 PM 39.9 °F 36.7 °F 36.0 °F 86% 30.24 in 10.0 mi SSE 4.6 mph - N/A   Mostly Cloudy
10:55 PM 39.0 °F - 37.0 °F 93% 30.24 in 10.0 mi Calm Calm - 0.01 in Rain Light Rain
11:51 PM 39.2 °F - 37.4 °F 93% 30.24 in 6.0 mi Calm Calm - 0.00 in   Mostly Cloudy
11:55 PM 39.0 °F - 37.0 °F 93% 30.22 in 6.0 mi Calm Calm - 0.00 in   Mostly Cloudy